Regional Weather Roundup
Issued by NWS

Home | Current Version | Previous Version | Text Only | Print | Product List | Glossary Off
Versions: 1 2 3 4 5 6 7 8 9 10 11 12 13 14 15 16 17 18 19 20 21 22 23 24 25 26 27 28 29 30 31 32 33 34 35 36 37 38 39 40 41 42 43 44 45 46 47 48 49 50

000
ASUS43 KMKX 050600
RWRWI

WISCONSIN REGIONAL WEATHER ROUNDUP
NATIONAL WEATHER SERVICE MILWAUKEE/SULLIVAN WI
100 AM CDT WED AUG 05 2015

NOTE: "FAIR" INDICATES FEW OR NO CLOUDS BELOW 12,000 FEET WITH NO
SIGNIFICANT WEATHER AND/OR OBSTRUCTIONS TO VISIBILITY.

WIZ001-002-006>008-014>016-023>028-050700-
NORTHWEST WISCONSIN

CITY           SKY/WX    TMP DP  RH WIND       PRES   REMARKS
SUPERIOR ARPT  CLEAR     54  50  86 NE3       30.08R
ASHLAND        CLEAR     47  47 100 W3        30.08S
6HR MIN TEMP:  47; 6HR MAX TEMP:  67;

HAYWARD        PTCLDY    55  51  86 N3        30.08S
6HR MIN TEMP:  54; 6HR MAX TEMP:  72;

SIREN          CLEAR     59  55  86 E5        30.07R
CUMBERLAND     CLEAR     57  54  88 E7        30.07R
RICE LAKE      CLEAR     58  52  80 NE3       30.07R
CHETEK         CLEAR     61  56  82 NE6       30.06R
LADYSMITH      PTCLDY    56  52  86 CALM      30.08S
EAU CLAIRE     NOT AVBL
MENOMONIE      CLEAR     60  57  91 N3        30.04S
NEW RICHMOND   CLEAR     57  56  95 CALM      30.05R
OSCEOLA        CLEAR     57  57 100 CALM      30.07R
$$

WIZ003>005-009-010-017-018-050700-
NORTH CENTRAL WISCONSIN

CITY           SKY/WX    TMP DP  RH WIND       PRES   REMARKS
MANITOWISH WTR CLEAR     46  46 100 CALM      30.09S
ARBOR VITAE    CLEAR     52  49  92 CALM      30.09R
WOODRUFF       CLEAR     52  49  92 CALM      30.09R
RHINELANDER    MOCLDY    54  51  90 CALM      30.09S
6HR MIN TEMP:  54; 6HR MAX TEMP:  67;

EAGLE RIVER    FOG       47  47 100 CALM      30.09R VSB 1
LAND O LAKES   CLEAR     44  43  98 CALM      30.10S
PHILLIPS       PTCLDY    55  51  85 NE5       30.08S
6HR MIN TEMP:  55; 6HR MAX TEMP:  68;

TOMAHAWK       CLOUDY    58  52  79 CALM      30.09R
MEDFORD        CLEAR     53  51  94 NE5       30.07S
MERRILL        NOT AVBL
$$

WIZ029-030-035-036-043>047-050700-
CENTRAL WISCONSIN

CITY           SKY/WX    TMP DP  RH WIND       PRES   REMARKS
WAUSAU         CLOUDY    60  53  77 CALM      30.05S
6HR MIN TEMP:  60; 6HR MAX TEMP:  74;

MOSINEE        PTCLDY    55  52  88 NE3       30.07R
MARSHFIELD     CLEAR     60  53  77 NE3       30.05S
6HR MIN TEMP:  58; 6HR MAX TEMP:  74; 6HR PCP: TRACE;

STEVENS POINT  CLEAR     53  51  94 CALM      30.05S
WAUPACA        CLEAR     57  56  95 N5        30.04S
WAUTOMA        NOT AVBL
WISC RAPIDS    MOCLDY    58  53  84 CALM      30.06R
6HR MIN TEMP:  56; 6HR MAX TEMP:  76; 6HR PCP: TRACE;

CAMP DOUGLAS   PTCLDY    52  52 100 CALM      30.03S
$$

WIZ011>013-019>022-031-037>040-048>050-050700-
NORTHEAST WISCONSIN

CITY           SKY/WX    TMP DP  RH WIND       PRES   REMARKS
ANTIGO         CLOUDY    58  54  86 NE6       30.08S
SHAWANO        CLOUDY    64  58  81 E5        30.06R
OCONTO         PTCLDY    59  59  99 N3        30.05R
STURGEON BAY   PTCLDY    61  54  77 CALM      30.08R
6HR MIN TEMP:  61; 6HR MAX TEMP:  66;

GREEN BAY      PTCLDY    60  56  86 NE5       30.05R
6HR MIN TEMP:  59; 6HR MAX TEMP:  75;

MANITOWOC      NOT AVBL
APPLETON       CLEAR     59  52  77 NE3       30.04S
CLINTONVILLE   PTCLDY    55  54  94 NE5       30.05S
OSHKOSH        CLEAR     59  53  80 CALM      30.03S
6HR MIN TEMP:  57; 6HR MAX TEMP:  75;

$$

WIZ032>034-041-042-053>061-050700-
SOUTHWEST WISCONSIN

CITY           SKY/WX    TMP DP  RH WIND       PRES   REMARKS
LA CROSSE      CLEAR     62  58  86 E3        30.03R
6HR MIN TEMP:  61; 6HR MAX TEMP:  79;

SPARTA         CLEAR     54  52  93 CALM      30.05S
VIROQUA        CLEAR     58  56  91 CALM      30.05S
BOSCOBEL       CLEAR     56  54  93 CALM      30.05R
6HR MIN TEMP:  56; 6HR MAX TEMP:  79;

PRAIRIE DU CHI CLEAR     59  56  89 CALM      30.04S
PLATTEVILLE    PTCLDY    62  56  79 CALM      30.05S
$$

WIZ056-057-062-063-064-067-068-050700-
SOUTH CENTRAL WISCONSIN

CITY           SKY/WX    TMP DP  RH WIND       PRES   REMARKS
REEDSBURG      CLEAR     56  56  97 CALM      30.04S
BARABOO/DELLS  CLEAR     58  53  84 CALM      30.04S
LONE ROCK      NOT AVBL
MINERAL POINT  CLEAR     64  54  68 CALM      30.05F
MADISON        CLEAR     59  54  83 CALM      30.04R
6HR MIN TEMP:  59; 6HR MAX TEMP:  77;

MIDDLETON      CLEAR     58  54  89 CALM      30.04F
WATERTOWN      CLEAR     58  58 100 CALM      30.03S
MONROE         CLEAR     68  52  56 W9        30.05S
JANESVILLE     CLEAR     61  57  88 CALM      30.04S
$$

WIZ051-052-058>065-066-070>072-050700-
SOUTHEAST WISCONSIN

CITY           SKY/WX    TMP DP  RH WIND       PRES   REMARKS
MILWAUKEE      PTCLDY    67  55  65 SW3       30.03S
6HR MIN TEMP:  65; 6HR MAX TEMP:  73;

WAUKESHA       CLEAR     57  52  82 CALM      30.05S
MILWAUKEE/TIMM PTCLDY    63  52  67 CALM      30.04S
RACINE         CLEAR     65  55  70 W5        30.05S
6HR MIN TEMP:  64; 6HR MAX TEMP:  73;

BURLINGTON     CLEAR     55  53  94 CALM      30.04S
KENOSHA        CLEAR     60  56  86 SW3       30.03F
6HR MIN TEMP:  59; 6HR MAX TEMP:  74;

FOND DU LAC    PTCLDY    57  55  93 CALM      30.03S
6HR MIN TEMP:  57; 6HR MAX TEMP:  76;

SHEBOYGAN      CLEAR     55  53  93 N3        30.03S
6HR MIN TEMP:  55; 6HR MAX TEMP:  75;

WEST BEND      CLEAR     59  54  82 CALM      30.04S
JUNEAU         PTCLDY    61  55  82 CALM      30.05S
$$

LSZ147-162-050700-
LAKE SUPERIOR

STATION/POSITION TIME  TEMP    WIND        PRES    WAVE
                       AIR SEA DIR/SP/G            HT/PER
                 (UTC) (F)     (DEG/KT/KT) (MB)    (FT/S)
W MID LAKE BUOY  0450   58 58  240/  6/  8 1017.9R   0
DEVILS ISLAND    0500   62     210/  5/  5 1018.4R
PORT WING        0500   58     130/  2/  5 1018.6R
SAXON HARBOR     0500   53     170/  5/  6 1017.6
$$

LMZ867-665-643>646-050700-
LAKE MICHIGAN

STATION/POSITION TIME  TEMP    WIND        PRES    WAVE
                       AIR SEA DIR/SP/G            HT/PER
                 (UTC) (F)     (DEG/KT/KT) (MB)    (FT/S)
CHAMBERS ISLAND  0500   64      30/  5/  7 1017.6R
N MID LAKE BUOY  0450   62 68  330/  8/ 10 1017.2R   2/ 4
NORTHPORT PIER   0500   62      40/  5/  7 1017.6
SISTER BAY       0548   59      40/  2/  5   N/A
ALGOMA LAKESHORE 0513           40/  6/  8   N/A
KEWAUNEE LAKESHO 0500   62      30/  3/  5 1016.5R
SHEBOYGAN LAKESH 0500   68     270/  5/  6 1016.8R
PORT WASHINGTON  0500   67     280/  4/  5 1017.3R
ATWATER BUOY     0500   65 64  290/  2/  2 1018.3R
MILWAUKEE LAKESH 0500   68     240/  2/  2   N/A
KENOSHA   LAKESH 0500   69     230/  6/ 10 1016.6R
$$

TC  - TEMPERATURE IN CELSIUS
VSB - VISIBILITY IN STATUTE MILES
WCI - WIND CHILL INDEX
HX  - HEAT INDEX



USA.gov is the U.S. government's official web portal to all federal, state and local government web resources and services.